User: anonymous   Login
Location: ??????
(55.6130°N, 37.7882°E)
Time: 12:53:17
(UTC+00:00)
Language:

GP-B - Orbit

View from above orbital plane
View from above orbital plane
View from above satellite
View from above satellite

Ground track
Ground track

The orbit data is extracted from the following two-line orbital elements,

1 28230U 04014A   24172.17797500  .00000975  00000-0  12432-3 0  9992
2 28230  89.8291  65.0594 0002987  74.6420 285.5134 14.80860360 87472
Epoch (UTC): 20 June 2024 04:16:17
Eccentricity: 0.0002987
inclination: 89.8291°
perigee height: 624 km
apogee height: 629 km
right ascension of ascending node: 65.0594°
argument of perigee: 74.6420°
revolutions per day: 14.80860360
mean anomaly at epoch: 285.5134°
orbit number at epoch: 8747

The dashed part of the orbit path shows where the satellite is in the earth's shadow,  

DLR